TimeEDT,TemperatureF,Dew PointF,Humidity,Sea Level PressureIn,VisibilityMPH,Wind Direction,Wind SpeedMPH,Gust SpeedMPH,PrecipitationIn,Events,Conditions,WindDirDegrees,DateUTC
12:51 AM,51.1,39.0,63,30.37,10.0,North,4.6,-,N/A,,Clear,10,2013-10-09 04:51:00
1:51 AM,50.0,39.0,66,30.38,10.0,NNE,8.1,-,N/A,,Clear,20,2013-10-09 05:51:00
2:51 AM,50.0,41.0,71,30.38,10.0,NNE,8.1,-,N/A,,Clear,30,2013-10-09 06:51:00
3:51 AM,48.9,42.1,77,30.39,10.0,NE,6.9,-,N/A,,Clear,40,2013-10-09 07:51:00
4:51 AM,48.9,42.1,77,30.39,10.0,NNE,8.1,-,N/A,,Clear,20,2013-10-09 08:51:00
5:51 AM,50.0,41.0,71,30.40,10.0,NNE,10.4,-,N/A,,Partly Cloudy,30,2013-10-09 09:51:00
6:51 AM,50.0,41.0,71,30.41,10.0,NNE,10.4,-,N/A,,Mostly Cloudy,30,2013-10-09 10:51:00
7:51 AM,51.1,42.1,71,30.43,10.0,NNE,9.2,-,N/A,,Mostly Cloudy,20,2013-10-09 11:51:00
8:51 AM,55.0,43.0,64,30.44,10.0,NE,9.2,-,N/A,,Mostly Cloudy,40,2013-10-09 12:51:00
9:51 AM,57.0,44.1,62,30.44,10.0,NE,11.5,-,N/A,,Mostly Cloudy,40,2013-10-09 13:51:00
10:51 AM,61.0,45.0,56,30.44,10.0,NE,15.0,-,N/A,,Mostly Cloudy,50,2013-10-09 14:51:00
11:51 AM,63.0,44.1,50,30.43,10.0,NE,13.8,17.3,N/A,,Mostly Cloudy,50,2013-10-09 15:51:00
12:51 PM,64.0,43.0,46,30.42,10.0,ENE,11.5,18.4,N/A,,Mostly Cloudy,60,2013-10-09 16:51:00
1:51 PM,63.0,43.0,48,30.40,10.0,East,13.8,-,N/A,,Mostly Cloudy,80,2013-10-09 17:51:00
2:51 PM,64.0,43.0,46,30.40,10.0,ENE,10.4,-,N/A,,Mostly Cloudy,70,2013-10-09 18:51:00
3:51 PM,62.1,43.0,50,30.39,10.0,East,8.1,-,N/A,,Mostly Cloudy,80,2013-10-09 19:51:00
4:51 PM,60.1,42.1,51,30.39,10.0,East,9.2,-,N/A,,Mostly Cloudy,90,2013-10-09 20:51:00
5:51 PM,57.0,42.1,57,30.39,10.0,ENE,12.7,-,N/A,,Mostly Cloudy,70,2013-10-09 21:51:00
6:51 PM,54.0,43.0,66,30.38,10.0,ENE,6.9,-,N/A,,Mostly Cloudy,60,2013-10-09 22:51:00
7:51 PM,52.0,44.1,74,30.38,10.0,NE,6.9,-,N/A,,Mostly Cloudy,40,2013-10-09 23:51:00
8:51 PM,52.0,45.0,77,30.38,10.0,NE,8.1,-,N/A,,Mostly Cloudy,40,2013-10-10 00:51:00
9:51 PM,51.1,45.0,80,30.37,10.0,NNE,9.2,-,N/A,,Mostly Cloudy,30,2013-10-10 01:51:00
10:51 PM,51.1,45.0,80,30.37,10.0,NNE,8.1,-,N/A,,Mostly Cloudy,20,2013-10-10 02:51:00
11:51 PM,50.0,46.0,86,30.37,10.0,NNE,8.1,-,N/A,,Mostly Cloudy,30,2013-10-10 03:51:00